This demonstration page uses our WeatherBlox Daily Observations layout. Learn more.

Left ArrowRight Arrow

38.80484, -77.04692

Hourly Observations for May 15, 2015

Temp ( °F °C ) Dew Point ( °F °C ) Humidity (%) Winds ( mph kmh ) Pressure ( in mb ) Visibility ( mi km ) Precip ( " mm )
12:52 am 00:52 Mostly Cloudy 62 16.7 47 8.3 58 58 S 10 17 30.34 1027 10 16 0.00 0.00
1:52 am 01:52 Mostly Cloudy 60 15.6 46 7.8 60 60 SSW 13 20 30.33 1027 10 16 0.00 0.00
2:52 am 02:52 Mostly Cloudy 60 15.6 47 8.3 62 62 S 9 15 30.32 1027 10 16 0.00 0.00
3:52 am 03:52 Mostly Cloudy 59 15 48 8.9 67 67 S 7 11 30.32 1027 10 16 0.00 0.00
4:52 am 04:52 Mostly Cloudy 59 15 48 8.9 67 67 SSW 9 15 30.32 1027 10 16 0.00 0.00
5:52 am 05:52 Cloudy 58 14.4 49 9.4 72 72 S 6 9 30.32 1027 10 16 0.00 0.00
6:52 am 06:52 Cloudy 58 14.4 49 9.4 72 72 S 7 11 30.33 1027 10 16 0.00 0.00
7:52 am 07:52 Cloudy 60 15.6 48 8.9 65 65 S 7 11 30.33 1027 10 16 0.00 0.00
8:52 am 08:52 Cloudy 62 16.7 47 8.3 58 58 S 13 20 30.33 1027 10 16 0.00 0.00
9:52 am 09:52 Cloudy 65 18.3 46 7.8 51 51 S 12 19 30.33 1027 10 16 0.00 0.00
10:52 am 10:52 Mostly Cloudy 68 20 48 8.9 49 49 S 12 19 30.32 1027 10 16 0.00 0.00
11:52 am 11:52 Partly Cloudy 71 21.7 49 9.4 46 46 S 13 20 30.31 1026 10 16 0.00 0.00
12:52 pm 12:52 Partly Cloudy 73 22.8 51 10.6 46 46 S 14 22 30.27 1025 10 16 0.00 0.00
1:52 pm 13:52 Mostly Sunny 75 23.9 53 11.7 46 46 S 10 17 30.25 1024 10 16 0.00 0.00
2:52 pm 14:52 Partly Cloudy 76 24.4 54 12.2 47 47 S 12 19 30.24 1024 10 16 0.00 0.00
3:52 pm 15:52 Partly Cloudy 77 25 55 12.8 47 47 S 13 20 30.22 1023 10 16 0.00 0.00
4:52 pm 16:52 Mostly Cloudy 76 24.4 55 12.8 48 48 S 10 17 30.19 1023 10 16 0.00 0.00
5:52 pm 17:52 Mostly Cloudy 77 25 56 13.3 48 48 S 10 17 30.19 1022 10 16 0.00 0.00
6:52 pm 18:52 Mostly Cloudy 76 24.4 57 13.9 52 52 S 12 19 30.19 1022 10 16 0.00 0.00
7:52 pm 19:52 Mostly Cloudy 75 23.9 56 13.3 52 52 S 12 19 30.18 1022 10 16 0.00 0.00
8:52 pm 20:52 Partly Cloudy 72 22.2 55 12.8 55 55 SSE 9 15 30.18 1022 10 16 0.00 0.00
9:52 pm 21:52 Mostly Clear 69 20.6 55 12.8 61 61 S 7 11 30.19 1022 10 16 0.00 0.00
10:52 pm 22:52 Mostly Cloudy 68 20 56 13.3 65 65 S 7 11 30.20 1023 10 16 0.00 0.00
11:52 pm 23:52 Mostly Cloudy 68 20 57 13.9 68 68 S 9 15 30.19 1023 10 16 0.00 0.00

Powered by AerisWeather